Regional Weather Roundup
Issued by NWS Binghamton, NY

Home | Current Version | Previous Version | Text Only | Print | Product List | Glossary On
Versions: 1 2 3 4 5 6 7 8 9 10 11 12 13 14 15 16 17 18 19 20 21 22 23 24 25 26 27 28
000
ASUS41 KBGM 250510
RWRBGM
RWRBGM
BINGHAMTON REGIONAL WEATHER ROUNDUP
NATIONAL WEATHER SERVICE BINGHAMTON NY
100 AM EDT SAT OCT 25 2014

Note: "fair" indicates few or no clouds below 12,000 feet with no
significant weather and/or obstructions to visibility.

* = Station(s) that does not report precipitation, such as rain,
snow, etc, also no thunder or fog.

!NYZ009-015>018-022>025-036-037-044>046-055>057-062-250600
...CENTRAL NEW YORK...

CITY           SKY/WX    TMP DP  RH WIND       PRES   REMARKS
BINGHAMTON     CLEAR     43  30  60 W3        29.89F
CORTLAND       FAIR      37  36  93 W3        29.92S
DANSVILLE      PTCLDY    41  38  89 SE6       29.94F
ELMIRA         CLEAR     43  33  68 W12       29.92F
ITHACA         PTCLDY    36  35  96 CALM      29.92F
HAMILTON       CLEAR     39  37  93 CALM      29.89F
MONTICELLO     PTCLDY    45  36  70 NW7       29.88S
NORWICH        CLEAR     36  34  93 CALM      29.91S
ONEONTA        CLEAR     41  34  75 CALM      29.88S
PENN YAN       PTCLDY    49  40  71 S10       29.91F
ROME           MOCLDY    39  38  96 CALM      29.90F
SIDNEY         CLEAR     37  37 100 CALM      29.90F
SYRACUSE       MOCLDY    47  41  80 SW8       29.89F
$$

!PAZ038>040-043-044-047-048-072-250600
...NORTHEAST PENNSYLVANIA...

CITY           SKY/WX    TMP DP  RH WIND       PRES   REMARKS
HAZLETON       CLEAR     50  28  43 W6        29.94R
SCRANTON       CLEAR     44  34  67 CALM      29.91S
TOWANDA*       CLEAR     39  36  87 SW5       29.94R
$$
&&
KEY
WCI = WIND CHILL INDEX
VSB = VISIBILITY
HX  = HEAT INDEX
$$



USA.gov is the U.S. government's official web portal to all federal, state and local government web resources and services.